Current weather by "City, St" or "zip code"  
 
Advertise Here

Current Conditions: Aurora, Aurora Municipal Airport, NE

Partly Cloudy


25.0 F

Last Updated on Jan 22 2021, 2:55 am CST
Humidity: 79%
Wind Speed: N 9.2 mph
Barometer 30.15 in
Dewpoint: 19.0 F
Visibility: 10.00 mi
Precip: --
Heat Index: NA
Wind Chill: 16 F
Current conditions at:

Aurora, Aurora Municipal Airport, NE (KAUH)

Lat: 40.89389 Lon: 97.99444

Local Radar Image active severe weather and emergency alerts image image weather storm and storm spotter reports image weather observation monitoring service image
Local
Radar
Active
Alerts
Storm Reports Obs
Monitoring

Sign-up For Email & Text Message Weather Alert Notification Services


Advertise Here

Observation History for Aurora, Aurora Municipal Airport, NE


Time Wind
(mph)
Vis
(mi)
Weather Precip (in) Temperature (F) Relative
Humidity
Wind
Chill
(F)
Heat
Index
(F)
Pressure
Air Dwpt altimeter
(in)
sea level
(mb)
Rmks
2:55 am CST N 9.2 10.00 Partly Cloudy -- 25.0 19.0 79% 16 NA 30.15 M
1:55 am CST N 9.2 10.00 Fair -- 26.0 19.8 77% 17 NA 30.15 M
12:55 am CST N 6.9 10.00 Fair -- 26.0 19.2 77% 18 NA 30.13 M
12:35 am CST N 5.8 10.00 Fair -- 26.0 19.2 76% 19 NA 30.13 M
11:55 pm CST N 6.9 10.00 Partly Cloudy -- 26.0 19.2 74% 18 NA 30.13 M
10:55 pm CST N 4.6 10.00 Fair -- 26.0 18.3 72% 20 NA 30.11 M
9:55 pm CST N 8.1 10.00 Partly Cloudy -- 29.0 19.2 66% 21 NA 30.10 M
9:35 pm CST N 8.1 10.00 Partly Cloudy -- 29.0 19.4 67% 21 NA 30.09 M
8:55 pm CST NW 8.1 10.00 Partly Cloudy -- 29.0 18.0 63% 21 NA 30.08 M
7:55 pm CST N 5.8 10.00 Overcast -- 31.0 20.3 64% 25 NA 30.07 M
6:55 pm CST N 4.6 10.00 Overcast -- 33.0 19.9 59% 29 NA 30.05 M
5:55 pm CST N 4.6 10.00 Overcast -- 37.0 19.9 51% 33 NA 30.03 M
4:55 pm CST N 15.0 10.00 Fair -- 44.0 18.5 37% 37 NA 30.00 M
3:55 pm CST N 17.3 10.00 Fair -- 47.0 19.2 34% 40 NA 29.98 M
3:35 pm CST N 16.1 G 19.6 10.00 Fair -- 46.0 19.2 35% 39 NA 29.98 M
2:55 pm CST N 16.1 G 28.8 10.00 Fair -- 48.0 18.7 32% 42 NA 29.96 M
1:55 pm CST N 17.3 10.00 Fair -- 48.0 19.4 32% 42 NA 29.96 M
1:35 pm CST N 19.6 G 27.6 10.00 Fair -- 48.0 19.6 32% 41 NA 29.96 M
12:55 pm CST N 19.6 10.00 Fair -- 46.0 21.4 38% 38 NA 29.97 M
11:55 am CST N 17.3 10.00 Fair -- 44.0 23.2 43% 36 NA 29.98 M
10:55 am CST NW 13.8 10.00 Fair -- 40.0 22.8 49% 32 NA 29.99 M
10:35 am CST NW 10.4 10.00 Fair -- 40.0 21.6 48% 33 NA 29.98 M
9:55 am CST W 9.2 10.00 Fair -- 38.0 23.9 56% 32 NA 29.97 M
8:55 am CST W 9.2 10.00 Fair -- 30.0 21.2 71% 22 NA 29.95 M

Regional Weather Observation


Aurora, Aurora Municipal Airport, NE (KAUH)

Partly Cloudy
25.0 F

Albion Municipal Airport, NE (KBVN)

Partly Cloudy
20.0 F

Hastings, Hastings Municipal Airport, NE (KHSI)

Mostly Cloudy
27.0 F

York, York Municipal Airport, NE (KJYR)

Mostly Cloudy
23.0 F

Ord, Evelyn Sharp Field Airport, NE (KODX)

Fair
21.0 F

Columbus, Columbus Municipal Airport, NE (KOLU)

Fair
21.0 F